#timestamp,LO_Frequency,Hit,StdDev 
1509249615.8,286047018.6,N
1509249635.7,286047017.5,N
1509249655.5,286047014.3,N
1509249675.3,286047020.1,Y
1509249695.2,286047007.2,P
1509249715.9,286047008.8,N
1509249735.7,286047003.0,N
1509249755.6,286047004.3,N
1509249775.4,286047003.7,N
1509249795.2,286047004.1,N
1509249815.1,286047004.9,N
1509249816.0,286047004.9,N
1509249835.8,286047006.8,N
1509249855.6,286047006.3,N
1509249875.5,286047010.4,N
1509249895.3,286047007.7,N
1509249915.1,286047006.1,N
1509249935.9,286047007.4,N
1509249955.7,286047004.8,N
1509249975.6,286047005.9,N
1509249995.4,286047002.5,N
1509250015.2,286047002.0,N
1509250035.1,286047001.9,N
1509250036.0,286047001.9,N
1509250055.8,286047003.5,N
1509250075.6,286047007.3,N
1509250095.5,286047006.6,N
1509250115.3,286047005.8,N
1509250135.1,286047005.0,N
1509250155.9,286047007.2,N
1509250175.7,286047004.8,N
1509250195.5,286047005.5,N
1509250215.4,286047004.9,N
1509250235.2,286047005.4,N
1509250255.0,286047001.7,N
1509250255.9,286047001.7,N
1509250275.8,286047004.2,N
1509250295.6,286047001.7,N
1509250315.4,286047001.7,N
1509250335.3,286047004.7,N
1509250355.1,286047004.7,N
1509250356.0,286047004.7,N
1509250375.8,286047005.4,N
1509250395.7,286047003.5,N
1509250415.5,286047007.3,Y
1509250435.3,286047001.9,P
1509250455.2,286047005.9,P
1509250475.0,286047004.6,N
1509250475.9,286047004.6,Y
1509250495.8,286047000.7,P
1509250515.6,286046996.5,N
1509250535.4,286046997.1,N
1509250555.3,286046998.1,N
1509250575.1,286046997.7,N
1509250576.0,286046997.7,N
1509250595.8,286047001.0,N
1509250615.7,286047005.6,N
1509250635.5,286047001.4,N
1509250655.3,286047006.9,N
1509250675.2,286047006.1,N
1509250695.9,286047002.7,N
1509250715.7,286046994.9,N
1509250735.6,286046993.8,N
1509250755.4,286046989.0,N
1509250775.2,286046987.2,N
1509250795.1,286046990.7,N
1509250796.0,286046990.7,N
1509250815.8,286046988.6,N
1509250835.6,286046994.6,N
1509250855.5,286046985.4,N
1509250875.3,286046983.9,N
1509250895.1,286046987.9,N
1509250915.9,286046987.8,N
1509250935.7,286046988.8,N
1509250955.5,286046985.5,N
1509250975.4,286046983.9,N
1509250995.2,286046982.3,N
1509251015.0,286046984.3,N
1509251016.0,286046984.3,N
1509251035.8,286046982.8,N
1509251055.6,286046979.1,N
1509251075.5,286046978.1,N
1509251095.3,286046976.5,N
1509251115.1,286046971.0,Y
1509251135.9,286046980.1,P
1509251155.7,286046983.3,P
1509251175.5,286046983.4,P
1509251195.4,286046980.6,Y
1509251215.2,286046996.9,P
1509251235.0,286046995.1,N
1509251236.0,286046995.1,N
1509251255.8,286046995.6,N
1509251275.6,286046996.1,N
1509251295.5,286047001.2,N
1509251315.3,286047000.0,N
1509251335.1,286047002.2,N
1509251355.9,286047007.4,N
1509251375.7,286047007.8,N
1509251395.5,286047008.2,N
1509251415.4,286047012.9,N
1509251435.2,286047016.6,N
1509251455.0,286047021.6,N
1509251455.9,286047021.6,N
1509251475.8,286047019.6,N
1509251495.6,286047015.7,N
1509251515.4,286047014.3,N
1509251535.3,286047016.9,N
1509251555.1,286047023.1,N
1509251575.8,286047022.4,N
1509251595.7,286047023.3,N
1509251615.5,286047020.7,N
1509251635.3,286047024.2,N
1509251655.2,286047024.6,N
1509251675.9,286047025.0,N
1509251695.7,286047026.3,N
1509251715.6,286047028.8,N
1509251735.4,286047027.8,N
1509251755.2,286047024.1,N
1509251775.1,286047024.9,N
1509251776.0,286047024.9,N
1509251795.8,286047022.8,N
1509251815.6,286047021.4,N
1509251835.5,286047017.6,N
1509251855.3,286047019.2,N
1509251875.2,286047021.4,N
1509251895.9,286047022.9,Y
1509251915.7,286047009.2,P
1509251935.6,286047010.4,N
1509251955.4,286047008.2,N
1509251975.2,286047007.1,N
1509251995.1,286047002.9,N
1509251996.0,286047002.9,N
1509252015.8,286046999.7,N
1509252035.6,286047001.2,N
1509252055.5,286047000.4,N
1509252075.3,286046998.8,N
1509252095.1,286046999.0,N
1509252115.9,286046997.5,N
1509252135.7,286046996.6,N
1509252155.5,286046993.4,N
1509252175.4,286046995.3,N
1509252195.2,286046994.7,N
1509252215.0,286046996.3,N
1509252215.9,286046996.3,N
1509252235.8,286046997.4,N
1509252255.6,286046994.7,N
1509252275.4,286046992.1,N
1509252295.3,286046991.2,N
1509252315.1,286046993.2,N
1509252335.8,286046993.9,N
1509252355.7,286046988.1,N
1509252375.5,286046982.6,N
1509252395.4,286046977.5,Y
1509252415.2,286046982.2,P
1509252435.0,286046981.2,N
1509252435.9,286046981.2,N
1509252455.8,286046983.3,N
1509252475.6,286046981.8,N
1509252495.4,286046983.4,N
1509252515.3,286046981.8,Y
1509252535.1,286046994.5,P
1509252555.8,286046992.2,N
1509252575.7,286046991.8,N
1509252595.5,286046994.5,N
1509252615.3,286046999.6,N
1509252635.2,286046993.6,N
1509252655.9,286046994.9,N
1509252675.7,286046991.7,N
1509252695.6,286046992.9,N
1509252715.4,286046994.6,N
1509252735.2,286046998.5,N
1509252755.1,286047000.2,N
1509252756.0,286047000.2,N
1509252775.8,286046996.6,N
1509252795.6,286046999.7,N
1509252815.5,286046997.1,N
1509252835.3,286046999.6,N
1509252855.1,286046997.4,N
1509252875.9,286046997.4,N
1509252895.7,286046997.6,N
1509252915.5,286046995.2,N
1509252935.4,286046993.7,N
1509252955.2,286046992.3,N
1509252975.0,286046996.1,N
1509252976.0,286046996.1,N
1509252995.8,286046993.4,N
1509253015.6,286046997.5,N
1509253035.4,286046999.7,N
1509253055.3,286047000.7,N
1509253075.1,286046999.2,N
1509253095.9,286046999.3,N
1509253115.7,286046996.0,N
1509253135.5,286046995.2,N
1509253155.4,286046997.6,N
1509253175.2,286046999.2,N
1509253195.0,286046996.0,N
1509253195.9,286046996.0,N
